Location: Unnamed
(48.6007°N, 2.4808°E)
Time: 09:48:48
(UTC+01:00)

Star 20 E-46? - Visible Passes

Search period start: 02 December 2023 00:00
Search period end: 12 December 2023 00:00
Orbit: 754 x 853 km, 89.5° (Epoch: 01 December)

Date Brightness Start Highest point End Pass type
(mag) Time Alt. Az. Time Alt. Az. Time Alt. Az.
02 Dec 11.2 18:15:45 10° WSW 18:18:54 16° WNW 18:22:05 10° NW visible
03 Dec 10.8 17:48:41 10° SW 17:52:47 24° WNW 17:56:58 10° NNW visible
06 Dec 11.4 18:14:33 10° W 18:16:42 12° WNW 18:18:52 10° NW visible
07 Dec 11.1 17:46:56 10° WSW 17:50:31 19° WNW 17:54:10 10° NNW visible
11 Dec 11.2 17:45:25 10° WSW 17:48:16 15° WNW 17:51:10 10° NW visible
